Starlink 34306

operational
NORAD ID: 64259 Int'l Des: 2025-120 Owner: SPXS Country: US Constellation: starlink
LEOCIRCULAR

Starlink 34306について

説明を読み込み中...

リアルタイム位置

3D地球を読み込み中...

次回通過

高度履歴

Altitude vs Time

uPlot chart will show altitude changes over time

軌道要素

1 64259U 25120D 25307.39630033 .00018163 00000-0 62390-3 0 9992
2 64259 53.1572 343.0633 0001239 69.2469 290.8665 15.30196908 24536
Epoch: Nov 3, 2025 • Age: 26 hours

現在のステータス

高度 492.6 km
速度 7.62 km/s
衛星直下点 -48.89°S, 57.53°E
打ち上げ日 Jun 4, 2025
運用期間 0.4 years
タイプ internet

技術仕様

分類 Payload
質量 575.00 kg
乾燥質量 530.00 kg
総質量 575.00 kg
長さ 0.30 m
直径 4.10 m
スパン 29.00 m
形状 Box + pan
製造者 SPXS
バスタイプ Starlink V2MO
フェーズステータス In Orbit
所有者/国 SPXS/US

大規模コンステレーション

Loading constellations...